Weather History for Jonesville, VA

Change the Weather History Date:

Wednesday, March 6, 2013

  Actual Average (KLOZ) Record (KLOZ)
Temperature  
Mean Temperature 30 °F 45 °F  
Max Temperature 32 °F 55 °F 79 °F (1956)
Min Temperature 28 °F 34 °F -8 °F (1960)
Degree Days  
Heating Degree Days 35 20  
Month to date heating degree days 127  
Since 1 July heating degree days 3403  
Cooling Degree Days 0 0  
Month to date cooling degree days 0  
Year to date cooling degree days 0  
Moisture  
Dew Point 26 °F    
Average Humidity 82    
Maximum Humidity 93    
Minimum Humidity 69    
Precipitation  
Precipitation 1.49 in 0.13 in 3.00 in (1967)
Month to date precipitation 0.80  
Year to date precipitation 8.05  
Sea Level Pressure  
Sea Level Pressure 30.03 in    
Wind  
Wind Speed 9 mph (West)    
Max Wind Speed 15 mph    
Max Gust Speed 21 mph    
Visibility 6 miles    
Events Rain , Snow    
T = Trace of Precipitation, MM = Missing Value Source: NWS Daily Summary

Daily Weather History Graph

Daily Weather History Graph

Search for Another Location

Airport:

Trip Planner

Search our weather history database for the weather conditions in past years. The results will help you decide how hot, cold, wet, or windy it might be!

Date:

Astronomy

Mar. 06, 2013 Rise Set
Actual Time 6:56 AM EST 6:32 PM EST
Civil Twilight 6:30 AM EST 6:58 PM EST
Nautical Twilight 6:00 AM EST 7:28 PM EST
Astronomical Twilight 5:30 AM EST 7:58 PM EST
Moon 2:57 AM EST (3/6) 1:19 PM EST (3/6)
Length of Visible Light 12h 27m
Length of Day
11h 35m
Waning Crescent, 30% of the Moon is Illuminated
Mar 6
Waning Crescent
Mar 11
New
Mar 19
First Quarter
Mar 27
Full
Apr 3
Last Quarter

Hourly Weather History & Observations

Time (EST) Temp. Windchill Dew Point Humidity Pressure Visibility Wind Dir Wind Speed Gust Speed Precip Events Conditions
12:15 AM 32.0 °F 24.8 °F 28.4 °F 87% 29.81 in 5.0 mi West 8.1 mph - 0.03 in Snow Light Snow
12:35 AM 32.0 °F 23.0 °F 28.4 °F 87% 29.80 in 2.0 mi West 11.5 mph 18.4 mph 0.10 in Snow Light Snow
12:55 AM 30.2 °F 19.3 °F 28.4 °F 93% 29.81 in 1.2 mi West 15.0 mph 20.7 mph 0.27 in Snow Light Snow
1:15 AM 30.2 °F 19.8 °F 24.8 °F 80% 29.81 in 5.0 mi West 13.8 mph - 0.01 in Snow Light Snow
1:35 AM 30.2 °F 21.3 °F 24.8 °F 80% 29.81 in 10.0 mi West 10.4 mph 18.4 mph 0.02 in Rain Light Freezing Rain
1:55 AM 32.0 °F 23.0 °F 23.0 °F 69% 29.81 in 10.0 mi West 11.5 mph 18.4 mph 0.02 in Rain Light Rain
2:15 AM 32.0 °F 21.6 °F 23.0 °F 69% 29.82 in 10.0 mi West 15.0 mph 20.7 mph N/A Rain Light Rain
2:35 AM 30.2 °F 21.3 °F 23.0 °F 75% 29.82 in 5.0 mi West 10.4 mph 17.3 mph 0.01 in Snow Light Snow
2:55 AM 28.4 °F 19.1 °F 23.0 °F 80% 29.82 in 5.0 mi West 10.4 mph 17.3 mph 0.03 in Snow Light Snow
3:15 AM 28.4 °F 19.7 °F 23.0 °F 80% 29.81 in 3.0 mi West 9.2 mph - 0.04 in Snow Light Snow
3:35 AM 28.4 °F 19.1 °F 23.0 °F 80% 29.80 in 3.0 mi West 10.4 mph - 0.13 in Snow Light Snow
3:55 AM 28.4 °F 19.1 °F 23.0 °F 80% 29.81 in 4.0 mi West 10.4 mph 20.7 mph 0.16 in Snow Light Snow
4:15 AM 28.4 °F 19.7 °F 23.0 °F 80% 29.81 in 3.0 mi West 9.2 mph - 0.04 in Snow Light Snow
4:35 AM 28.4 °F 19.7 °F 24.8 °F 86% 29.81 in 2.5 mi WSW 9.2 mph - 0.16 in Snow Light Snow
4:55 AM 28.4 °F 20.4 °F 24.8 °F 86% 29.82 in 3.0 mi WSW 8.1 mph - 0.21 in Snow Light Snow
5:15 AM 28.4 °F 19.1 °F 24.8 °F 86% 29.82 in 3.0 mi WSW 10.4 mph 16.1 mph 0.02 in Snow Light Snow
5:55 AM 28.4 °F 19.1 °F 26.6 °F 93% 29.84 in 1.2 mi WSW 10.4 mph - 0.20 in Snow Light Snow
6:15 AM 28.4 °F 19.1 °F 26.6 °F 93% 29.84 in 1.5 mi WSW 10.4 mph - 0.21 in Snow Light Snow
6:35 AM 28.4 °F 21.2 °F 24.8 °F 86% 29.85 in 6.0 mi WSW 6.9 mph - 0.24 in Snow Light Snow
6:55 AM 28.4 °F 19.1 °F 24.8 °F 86% 29.86 in 4.0 mi WSW 10.4 mph - 0.29 in Snow Light Snow
7:15 AM 28.4 °F 17.5 °F 24.8 °F 86% 29.87 in 5.0 mi West 13.8 mph 20.7 mph N/A Snow Light Snow
7:35 AM 28.4 °F 18.5 °F 23.0 °F 80% 29.88 in 5.0 mi West 11.5 mph 17.3 mph 0.01 in Snow Light Snow
7:55 AM 30.2 °F 20.8 °F 24.8 °F 80% 29.89 in 2.5 mi West 11.5 mph 20.7 mph 0.06 in Snow Light Snow
8:15 AM 28.4 °F 18.5 °F 24.8 °F 86% 29.90 in 1.2 mi West 11.5 mph - 0.08 in Snow Light Snow
8:35 AM 28.4 °F 19.7 °F 24.8 °F 86% 29.93 in 1.5 mi West 9.2 mph - 0.15 in Snow Light Snow
8:55 AM 28.4 °F 19.7 °F 24.8 °F 86% 29.94 in 1.8 mi WSW 9.2 mph - 0.20 in Snow Light Snow
9:15 AM 28.4 °F 21.2 °F 26.6 °F 93% 29.96 in 1.8 mi WSW 6.9 mph - 0.01 in Snow Light Snow
9:35 AM 28.4 °F 19.7 °F 26.6 °F 93% 29.97 in 1.5 mi WSW 9.2 mph - 0.03 in Snow Light Snow
9:55 AM 28.4 °F 20.4 °F 26.6 °F 93% 29.98 in 5.0 mi SW 8.1 mph - 0.04 in Snow Light Snow
10:15 AM 30.2 °F 23.4 °F 26.6 °F 86% 30.00 in 7.0 mi WSW 6.9 mph - N/A Rain Light Freezing Rain
10:35 AM 32.0 °F 25.6 °F 24.8 °F 75% 30.01 in 5.0 mi West 6.9 mph - N/A Rain Light Rain
10:55 AM 30.2 °F 24.3 °F 24.8 °F 80% 30.02 in 3.0 mi West 5.8 mph - N/A Rain Light Freezing Rain
11:15 AM 30.2 °F 23.4 °F 26.6 °F 86% 30.03 in 2.0 mi West 6.9 mph - N/A Rain Light Freezing Rain
11:35 AM 30.2 °F 24.3 °F 26.6 °F 86% 30.03 in 2.5 mi West 5.8 mph - 0.01 in Rain Light Freezing Rain
11:55 AM 30.2 °F 22.6 °F 26.6 °F 86% 30.03 in 5.0 mi WSW 8.1 mph - 0.01 in   Mostly Cloudy
12:15 PM 32.0 °F 22.1 °F 24.8 °F 75% 30.04 in 8.0 mi WNW 13.8 mph 19.6 mph N/A Rain Light Rain
12:35 PM 32.0 °F 23.6 °F 24.8 °F 75% 30.06 in 8.0 mi West 10.4 mph 19.6 mph N/A Rain Light Rain
12:55 PM 32.0 °F 22.5 °F 24.8 °F 75% 30.07 in 9.0 mi WNW 12.7 mph 16.1 mph N/A Rain Light Rain
1:15 PM 32.0 °F 23.0 °F 24.8 °F 75% 30.07 in 10.0 mi NW 11.5 mph 17.3 mph N/A   Overcast
1:35 PM 32.0 °F 23.6 °F 24.8 °F 75% 30.07 in 10.0 mi NW 10.4 mph 19.6 mph N/A   Overcast
1:55 PM 32.0 °F 24.8 °F 24.8 °F 75% 30.08 in 7.0 mi NW 8.1 mph - N/A Rain Light Rain
2:15 PM 32.0 °F 25.6 °F 24.8 °F 75% 30.09 in 7.0 mi WNW 6.9 mph - N/A Rain Light Rain
2:35 PM 32.0 °F 23.6 °F 24.8 °F 75% 30.09 in 8.0 mi WNW 10.4 mph - N/A Rain Light Rain
2:55 PM 32.0 °F 25.6 °F 26.6 °F 80% 30.10 in 8.0 mi NW 6.9 mph - N/A Rain Light Rain
3:15 PM 32.0 °F 24.2 °F 26.6 °F 80% 30.12 in 10.0 mi NW 9.2 mph - N/A   Overcast
3:35 PM 32.0 °F 24.8 °F 26.6 °F 80% 30.13 in 8.0 mi WNW 8.1 mph - N/A Rain Light Rain
3:55 PM 32.0 °F 25.6 °F 26.6 °F 80% 30.14 in 9.0 mi West 6.9 mph - N/A   Overcast
4:15 PM 32.0 °F 24.8 °F 26.6 °F 80% 30.15 in 10.0 mi WNW 8.1 mph - N/A   Overcast
4:35 PM 32.0 °F 25.6 °F 26.6 °F 80% 30.16 in 10.0 mi NW 6.9 mph - N/A   Overcast
4:55 PM 32.0 °F 26.4 °F 26.6 °F 80% 30.16 in 9.0 mi WNW 5.8 mph - N/A   Mostly Cloudy
5:15 PM 32.0 °F 27.5 °F 26.6 °F 80% 30.18 in 9.0 mi WNW 4.6 mph - N/A   Scattered Clouds
5:35 PM 32.0 °F 27.5 °F 26.6 °F 80% 30.18 in 10.0 mi WNW 4.6 mph - N/A   Mostly Cloudy
5:55 PM 32.0 °F 26.4 °F 26.6 °F 80% 30.19 in 9.0 mi WNW 5.8 mph - N/A   Partly Cloudy
6:15 PM 32.0 °F 27.5 °F 26.6 °F 80% 30.19 in 8.0 mi West 4.6 mph - N/A   Mostly Cloudy
6:35 PM 32.0 °F 28.7 °F 26.6 °F 80% 30.20 in 9.0 mi SW 3.5 mph - N/A   Overcast
6:55 PM 32.0 °F 27.5 °F 28.4 °F 87% 30.20 in 8.0 mi SW 4.6 mph - N/A   Overcast
7:15 PM 30.2 °F 24.3 °F 28.4 °F 93% 30.22 in 7.0 mi WSW 5.8 mph - N/A   Mostly Cloudy
7:35 PM 30.2 °F 25.4 °F 28.4 °F 93% 30.22 in 6.0 mi SW 4.6 mph - N/A   Mostly Cloudy
7:55 PM 30.2 °F 25.4 °F 28.4 °F 93% 30.23 in 8.0 mi WSW 4.6 mph - N/A   Mostly Cloudy
8:15 PM 30.2 °F 24.3 °F 28.4 °F 93% 30.23 in 8.0 mi WSW 5.8 mph - N/A   Mostly Cloudy
8:35 PM 30.2 °F 23.4 °F 28.4 °F 93% 30.23 in 8.0 mi West 6.9 mph - N/A   Mostly Cloudy
8:55 PM 30.2 °F 25.4 °F 26.6 °F 86% 30.23 in 9.0 mi WSW 4.6 mph - N/A   Scattered Clouds
9:15 PM 30.2 °F 26.7 °F 26.6 °F 86% 30.24 in 10.0 mi West 3.5 mph - N/A   Mostly Cloudy
9:35 PM 30.2 °F - 26.6 °F 86% 30.24 in 10.0 mi Calm Calm - N/A   Overcast
9:55 PM 30.2 °F - 26.6 °F 86% 30.24 in 10.0 mi Calm Calm - N/A   Overcast
10:15 PM 32.0 °F 26.4 °F 26.6 °F 80% 30.25 in 10.0 mi NW 5.8 mph - N/A   Mostly Cloudy
10:35 PM 32.0 °F 28.7 °F 24.8 °F 75% 30.25 in 10.0 mi WNW 3.5 mph - N/A   Overcast
10:55 PM 32.0 °F - 24.8 °F 75% 30.25 in 10.0 mi Calm Calm - N/A   Overcast
11:15 PM 32.0 °F 28.7 °F 24.8 °F 75% 30.25 in 10.0 mi NNW 3.5 mph - N/A   Mostly Cloudy
11:35 PM 32.0 °F - 24.8 °F 75% 30.24 in 10.0 mi Calm Calm - N/A   Mostly Cloudy
11:55 PM 32.0 °F 28.7 °F 24.8 °F 75% 30.23 in 10.0 mi WNW 3.5 mph - N/A   Mostly Cloudy